• In Belgium
  • List of Countries
  • For 7 days
  • Water Temperature
  • Satellite Maps
  • Weather Map
  • Weather Widgets
  • user-avatar
    Login

    Hourly Weather Kukmor

    Today, 21 June, Thursday

    Time Temperature Precipitation Wind Pressure Humidity
    00:00 +12°C° 0 mm 5 mps 743 mmHg 72%
    01:00 +12°C° 0 mm 5 mps 743 mmHg 73%
    02:00 +10°C° 0 mm 5 mps 743 mmHg 74%
    03:00 +10°C° 0 mm 5 mps 743 mmHg 76%
    04:00 +11°C° 0 mm 6 mps 743 mmHg 74%
    05:00 +13°C° 0 mm 6 mps 743 mmHg 73%
    06:00 +12°C° 0 mm 7 mps 743 mmHg 72%
    07:00 +15°C° 0 mm 8 mps 743 mmHg 68%
    08:00 +16°C° 0 mm 8 mps 743 mmHg 64%
    09:00 +17°C° 0 mm 9 mps 743 mmHg 60%
    10:00 +17°C° 0.2 mm 9 mps 743 mmHg 60%
    11:00 +17°C° 0.2 mm 9 mps 743 mmHg 60%
    12:00 +18°C° 0.2 mm 9 mps 743 mmHg 61%
    13:00 +18°C° 0.4 mm 8 mps 743 mmHg 64%
    14:00 +17°C° 0.4 mm 7 mps 743 mmHg 67%
    15:00 +17°C° 0.4 mm 6 mps 743 mmHg 70%
    16:00 +17°C° 0.2 mm 5 mps 743 mmHg 72%
    17:00 +17°C° 0.2 mm 5 mps 743 mmHg 74%
    18:00 +17°C° 0.2 mm 4 mps 743 mmHg 76%
    19:00 +15°C° 0.1 mm 4 mps 743 mmHg 77%
    20:00 +14°C° 0.1 mm 3 mps 743 mmHg 78%
    21:00 +14°C° 0.1 mm 3 mps 744 mmHg 79%
    22:00 +13°C° 0 mm 4 mps 744 mmHg 77%
    23:00 +13°C° 0 mm 5 mps 744 mmHg 74%

    Tomorrow, 22 June, Friday

    Time Temperature Precipitation Wind Pressure Humidity
    00:00 +13°C° 0 mm 5 mps 744 mmHg 72%
    01:00 +13°C° 0 mm 5 mps 744 mmHg 70%
    02:00 +13°C° 0 mm 6 mps 745 mmHg 68%
    03:00 +13°C° 0 mm 6 mps 745 mmHg 67%
    04:00 +13°C° 0 mm 6 mps 746 mmHg 69%
    05:00 +13°C° 0 mm 5 mps 746 mmHg 72%
    06:00 +13°C° 0 mm 5 mps 746 mmHg 75%
    07:00 +15°C° 0 mm 6 mps 747 mmHg 73%
    08:00 +16°C° 0 mm 6 mps 747 mmHg 71%
    09:00 +19°C° 0 mm 6 mps 747 mmHg 69%
    10:00 +20°C° 0 mm 6 mps 748 mmHg 67%
    11:00 +21°C° 0 mm 6 mps 748 mmHg 65%
    12:00 +22°C° 0 mm 6 mps 748 mmHg 62%
    13:00 +22°C° 0 mm 6 mps 748 mmHg 61%
    14:00 +22°C° 0 mm 6 mps 749 mmHg 60%
    15:00 +23°C° 0 mm 6 mps 749 mmHg 58%
    16:00 +22°C° 0 mm 5 mps 749 mmHg 61%
    17:00 +22°C° 0 mm 4 mps 749 mmHg 64%
    18:00 +21°C° 0 mm 3 mps 749 mmHg 67%
    19:00 +19°C° 0 mm 3 mps 749 mmHg 72%
    20:00 +18°C° 0 mm 3 mps 750 mmHg 77%
    21:00 +16°C° 0 mm 2 mps 750 mmHg 81%
    22:00 +15°C° 0 mm 2 mps 750 mmHg 82%
    23:00 +15°C° 0 mm 2 mps 750 mmHg 83%

    Day after tomorrow, 23 June, Saturday

    Time Temperature Precipitation Wind Pressure Humidity
    00:00 +14°C° 0 mm 2 mps 751 mmHg 83%
    01:00 +14°C° 0 mm 2 mps 751 mmHg 84%
    02:00 +13°C° 0 mm 2 mps 751 mmHg 85%
    03:00 +13°C° 0 mm 2 mps 751 mmHg 85%
    04:00 +15°C° 0 mm 2 mps 751 mmHg 82%
    05:00 +16°C° 0 mm 1 mps 751 mmHg 79%
    06:00 +19°C° 0 mm 1 mps 751 mmHg 76%
    07:00 +20°C° 0 mm 2 mps 751 mmHg 71%
    08:00 +23°C° 0 mm 2 mps 751 mmHg 67%
    09:00 +24°C° 0 mm 2 mps 751 mmHg 63%
    10:00 +26°C° 0 mm 2 mps 751 mmHg 60%
    11:00 +27°C° 0 mm 2 mps 751 mmHg 58%
    12:00 +28°C° 0 mm 3 mps 751 mmHg 56%
    13:00 +28°C° 0.1 mm 3 mps 751 mmHg 57%
    14:00 +28°C° 0.1 mm 3 mps 751 mmHg 58%
    15:00 +28°C° 0.1 mm 3 mps 751 mmHg 60%
    16:00 +28°C° 0.1 mm 2 mps 751 mmHg 64%
    17:00 +28°C° 0.1 mm 2 mps 751 mmHg 68%
    18:00 +27°C° 0.1 mm 2 mps 751 mmHg 72%
    19:00 +26°C° 0 mm 1 mps 751 mmHg 77%
    20:00 +24°C° 0 mm 1 mps 751 mmHg 81%
    21:00 +22°C° 0 mm 1 mps 751 mmHg 85%
    22:00 +22°C° 0 mm 1 mps 751 mmHg 86%
    23:00 +21°C° 0 mm 1 mps 751 mmHg 87%

    24 June, Sunday

    Time Temperature Precipitation Wind Pressure Humidity
    00:00 +21°C° 0 mm 1 mps 751 mmHg 88%
    01:00 +20°C° 0 mm 1 mps 752 mmHg 89%
    02:00 +20°C° 0 mm 1 mps 752 mmHg 89%
    03:00 +20°C° 0 mm 1 mps 752 mmHg 90%
    04:00 +21°C° 0 mm 1 mps 752 mmHg 87%
    05:00 +22°C° 0 mm 1 mps 752 mmHg 84%
    06:00 +24°C° 0 mm 1 mps 752 mmHg 81%
    07:00 +25°C° 0.1 mm 1 mps 752 mmHg 77%
    08:00 +26°C° 0.1 mm 1 mps 752 mmHg 72%
    09:00 +28°C° 0.1 mm 1 mps 752 mmHg 68%
    10:00 +28°C° 0.3 mm 1 mps 752 mmHg 66%
    11:00 +29°C° 0.3 mm 2 mps 752 mmHg 63%
    12:00 +30°C° 0.3 mm 2 mps 752 mmHg 61%
    13:00 +30°C° 0.9 mm 2 mps 752 mmHg 63%
    14:00 +29°C° 0.9 mm 2 mps 752 mmHg 64%
    15:00 +29°C° 0.9 mm 2 mps 752 mmHg 65%
    16:00 +29°C° 0.4 mm 2 mps 752 mmHg 69%
    17:00 +29°C° 0.4 mm 2 mps 752 mmHg 72%
    18:00 +28°C° 0.4 mm 1 mps 752 mmHg 76%
    19:00 +26°C° 0 mm 2 mps 752 mmHg 80%
    20:00 +25°C° 0 mm 2 mps 752 mmHg 83%
    21:00 +23°C° 0 mm 2 mps 752 mmHg 87%
    22:00 +21°C° 0 mm 2 mps 752 mmHg 88%
    23:00 +21°C° 0 mm 2 mps 752 mmHg 89%

    25 June, Monday

    Time Temperature Precipitation Wind Pressure Humidity
    00:00 +20°C° 0 mm 2 mps 752 mmHg 90%
    01:00 +20°C° 0 mm 2 mps 752 mmHg 91%
    02:00 +20°C° 0 mm 2 mps 752 mmHg 91%
    03:00 +19°C° 0 mm 2 mps 752 mmHg 92%
    04:00 +20°C° 0 mm 2 mps 752 mmHg 89%
    05:00 +22°C° 0 mm 1 mps 752 mmHg 87%
    06:00 +23°C° 0 mm 1 mps 752 mmHg 85%
    07:00 +25°C° 0.2 mm 2 mps 752 mmHg 80%
    08:00 +26°C° 0.2 mm 2 mps 752 mmHg 75%
    09:00 +28°C° 0.2 mm 3 mps 751 mmHg 70%
    10:00 +28°C° 0.1 mm 3 mps 751 mmHg 65%
    11:00 +29°C° 0.1 mm 3 mps 751 mmHg 61%
    12:00 +30°C° 0.1 mm 3 mps 751 mmHg 56%
    13:00 +29°C° 0.1 mm 4 mps 752 mmHg 58%
    14:00 +29°C° 0.1 mm 4 mps 752 mmHg 60%
    15:00 +28°C° 0.1 mm 5 mps 752 mmHg 62%
    16:00 +27°C° 0 mm 4 mps 752 mmHg 68%
    17:00 +26°C° 0 mm 3 mps 752 mmHg 73%
    18:00 +24°C° 0 mm 3 mps 752 mmHg 78%
    19:00 +22°C° 0.1 mm 3 mps 752 mmHg 82%
    20:00 +21°C° 0.1 mm 2 mps 752 mmHg 86%
    21:00 +20°C° 0.1 mm 2 mps 752 mmHg 90%
    22:00 +19°C° 0 mm 2 mps 752 mmHg 92%
    23:00 +18°C° 0 mm 2 mps 752 mmHg 94%

    26 June, Tuesday

    Time Temperature Precipitation Wind Pressure Humidity
    00:00 +18°C° 0 mm 2 mps 751 mmHg 96%
    01:00 +17°C° 0 mm 2 mps 752 mmHg 96%
    02:00 +17°C° 0 mm 2 mps 752 mmHg 96%
    03:00 +16°C° 0 mm 2 mps 752 mmHg 96%
    04:00 +17°C° 0 mm 2 mps 752 mmHg 94%
    05:00 +18°C° 0 mm 2 mps 752 mmHg 91%
    06:00 +19°C° 0 mm 2 mps 752 mmHg 88%
    07:00 +20°C° 0 mm 2 mps 752 mmHg 81%
    08:00 +23°C° 0 mm 2 mps 752 mmHg 73%
    09:00 +24°C° 0 mm 2 mps 752 mmHg 66%
    10:00 +25°C° 0 mm 2 mps 751 mmHg 61%
    11:00 +26°C° 0 mm 2 mps 751 mmHg 56%
    12:00 +26°C° 0 mm 2 mps 751 mmHg 50%
    13:00 +27°C° 0 mm 2 mps 751 mmHg 50%
    14:00 +27°C° 0 mm 2 mps 751 mmHg 49%
    15:00 +27°C° 0 mm 2 mps 751 mmHg 48%
    16:00 +26°C° 0 mm 2 mps 751 mmHg 53%
    17:00 +26°C° 0 mm 2 mps 751 mmHg 58%
    18:00 +25°C° 0 mm 2 mps 751 mmHg 63%
    19:00 +24°C° 0 mm 2 mps 751 mmHg 67%
    20:00 +21°C° 0 mm 2 mps 751 mmHg 71%
    21:00 +19°C° 0 mm 2 mps 751 mmHg 75%
    22:00 +18°C° 0 mm 2 mps 750 mmHg 77%
    23:00 +17°C° 0 mm 2 mps 750 mmHg 78%
    Show more